When you browse on this site, cookies collect data to enhance your experience and personalize the content and advertising you see.
Visit our Privacy Policy to learn more. By continuing to use the site, you agree to this use of cookies and data.
  • en France
  • Liste des pays
  • À 7 jours
  • Température de l'eau
  • Carte météo
  • Widgets météo
  • user-avatar
    Se connecter

    Météo par heure à Shеki

    Ce jour, 23 Août, Vendredi

    Heure Température Précipitation Vent Pression Humidité
    00:00 +27°C° 0 mm 2 m/s 733 mmHg 35%
    01:00 +26°C° 0 mm 2 m/s 734 mmHg 36%
    02:00 +26°C° 0 mm 2 m/s 734 mmHg 36%
    03:00 +26°C° 0 mm 2 m/s 734 mmHg 36%
    04:00 +26°C° 0 mm 2 m/s 734 mmHg 35%
    05:00 +26°C° 0 mm 1 m/s 734 mmHg 34%
    06:00 +26°C° 0 mm 1 m/s 734 mmHg 34%
    07:00 +28°C° 0 mm 2 m/s 734 mmHg 31%
    08:00 +31°C° 0 mm 2 m/s 734 mmHg 28%
    09:00 +34°C° 0 mm 3 m/s 735 mmHg 25%
    10:00 +36°C° 0 mm 4 m/s 734 mmHg 23%
    11:00 +39°C° 0 mm 6 m/s 734 mmHg 22%
    12:00 +40°C° 0 mm 7 m/s 734 mmHg 20%
    13:00 +41°C° 0 mm 8 m/s 733 mmHg 19%
    14:00 +41°C° 0 mm 8 m/s 733 mmHg 18%
    15:00 +43°C° 0 mm 8 m/s 733 mmHg 18%
    16:00 +40°C° 0 mm 8 m/s 733 mmHg 19%
    17:00 +39°C° 0 mm 7 m/s 733 mmHg 20%
    18:00 +38°C° 0 mm 6 m/s 733 mmHg 21%
    19:00 +35°C° 0 mm 6 m/s 733 mmHg 24%
    20:00 +32°C° 0 mm 5 m/s 733 mmHg 26%
    21:00 +29°C° 0 mm 4 m/s 734 mmHg 28%
    22:00 +29°C° 0 mm 3 m/s 734 mmHg 28%
    23:00 +28°C° 0 mm 3 m/s 734 mmHg 28%

    Demain, 24 Août, Samedi

    Heure Température Précipitation Vent Pression Humidité
    00:00 +28°C° 0 mm 2 m/s 733 mmHg 28%
    01:00 +27°C° 0 mm 2 m/s 734 mmHg 28%
    02:00 +26°C° 0 mm 1 m/s 734 mmHg 28%
    03:00 +26°C° 0 mm 1 m/s 734 mmHg 28%
    04:00 +26°C° 0 mm 1 m/s 734 mmHg 29%
    05:00 +26°C° 0 mm 1 m/s 734 mmHg 30%
    06:00 +26°C° 0 mm 1 m/s 734 mmHg 31%
    07:00 +29°C° 0 mm 1 m/s 734 mmHg 27%
    08:00 +31°C° 0 mm 1 m/s 734 mmHg 24%
    09:00 +35°C° 0 mm 2 m/s 734 mmHg 21%
    10:00 +36°C° 0 mm 3 m/s 734 mmHg 19%
    11:00 +38°C° 0 mm 4 m/s 734 mmHg 17%
    12:00 +41°C° 0 mm 5 m/s 734 mmHg 15%
    13:00 +41°C° 0 mm 6 m/s 733 mmHg 15%
    14:00 +42°C° 0 mm 6 m/s 733 mmHg 16%
    15:00 +43°C° 0 mm 7 m/s 733 mmHg 16%
    16:00 +41°C° 0 mm 7 m/s 733 mmHg 17%
    17:00 +40°C° 0 mm 6 m/s 733 mmHg 19%
    18:00 +38°C° 0 mm 6 m/s 733 mmHg 20%
    19:00 +35°C° 0 mm 5 m/s 733 mmHg 23%
    20:00 +33°C° 0 mm 4 m/s 734 mmHg 25%
    21:00 +30°C° 0 mm 3 m/s 734 mmHg 27%
    22:00 +29°C° 0 mm 3 m/s 734 mmHg 29%
    23:00 +28°C° 0 mm 2 m/s 734 mmHg 32%

    Après-demain, 25 Août, Dimanche

    Heure Température Précipitation Vent Pression Humidité
    00:00 +28°C° 0 mm 1 m/s 734 mmHg 34%
    01:00 +27°C° 0 mm 1 m/s 734 mmHg 35%
    02:00 +26°C° 0 mm 1 m/s 734 mmHg 35%
    03:00 +26°C° 0 mm 1 m/s 733 mmHg 36%
    04:00 +26°C° 0 mm 1 m/s 733 mmHg 36%
    05:00 +26°C° 0 mm 1 m/s 734 mmHg 36%
    06:00 +27°C° 0 mm 1 m/s 734 mmHg 36%
    07:00 +29°C° 0 mm 1 m/s 734 mmHg 34%
    08:00 +31°C° 0 mm 1 m/s 734 mmHg 31%
    09:00 +33°C° 0 mm 1 m/s 734 mmHg 28%
    10:00 +35°C° 0 mm 2 m/s 734 mmHg 25%
    11:00 +36°C° 0 mm 2 m/s 734 mmHg 23%
    12:00 +38°C° 0 mm 3 m/s 734 mmHg 20%
    13:00 +38°C° 0 mm 3 m/s 733 mmHg 20%
    14:00 +39°C° 0 mm 3 m/s 733 mmHg 19%
    15:00 +40°C° 0 mm 4 m/s 733 mmHg 18%
    16:00 +38°C° 0 mm 3 m/s 733 mmHg 20%
    17:00 +37°C° 0 mm 2 m/s 733 mmHg 21%
    18:00 +36°C° 0 mm 2 m/s 733 mmHg 23%
    19:00 +32°C° 0 mm 2 m/s 733 mmHg 26%
    20:00 +30°C° 0 mm 2 m/s 734 mmHg 29%
    21:00 +28°C° 0 mm 3 m/s 734 mmHg 32%
    22:00 +27°C° 0 mm 2 m/s 734 mmHg 34%
    23:00 +27°C° 0 mm 2 m/s 734 mmHg 36%

    26 Août, Lundi

    Heure Température Précipitation Vent Pression Humidité
    00:00 +26°C° 0 mm 2 m/s 734 mmHg 37%
    01:00 +25°C° 0 mm 2 m/s 734 mmHg 38%
    02:00 +25°C° 0 mm 1 m/s 734 mmHg 38%
    03:00 +25°C° 0 mm 1 m/s 734 mmHg 39%
    04:00 +25°C° 0 mm 1 m/s 734 mmHg 40%
    05:00 +25°C° 0 mm 1 m/s 735 mmHg 40%
    06:00 +23°C° 0 mm 0 m/s 735 mmHg 41%
    07:00 +27°C° 0 mm 1 m/s 735 mmHg 36%
    08:00 +29°C° 0 mm 2 m/s 735 mmHg 31%
    09:00 +31°C° 0 mm 2 m/s 736 mmHg 27%
    10:00 +33°C° 0 mm 3 m/s 736 mmHg 24%
    11:00 +35°C° 0 mm 3 m/s 736 mmHg 22%
    12:00 +36°C° 0 mm 4 m/s 736 mmHg 20%
    13:00 +36°C° 0 mm 4 m/s 735 mmHg 20%
    14:00 +37°C° 0 mm 4 m/s 735 mmHg 20%
    15:00 +37°C° 0 mm 4 m/s 735 mmHg 21%
    16:00 +36°C° 0 mm 5 m/s 735 mmHg 24%
    17:00 +35°C° 0 mm 5 m/s 735 mmHg 27%
    18:00 +33°C° 0 mm 5 m/s 736 mmHg 31%
    19:00 +32°C° 0 mm 5 m/s 736 mmHg 38%
    20:00 +29°C° 0 mm 5 m/s 737 mmHg 45%
    21:00 +27°C° 0 mm 4 m/s 737 mmHg 52%
    22:00 +26°C° 0 mm 4 m/s 737 mmHg 55%
    23:00 +26°C° 0 mm 3 m/s 737 mmHg 58%

    27 Août, Mardi

    Heure Température Précipitation Vent Pression Humidité
    00:00 +26°C° 0 mm 3 m/s 738 mmHg 61%
    01:00 +25°C° 0 mm 2 m/s 737 mmHg 63%
    02:00 +24°C° 0 mm 2 m/s 737 mmHg 66%
    03:00 +23°C° 0 mm 2 m/s 736 mmHg 69%
    04:00 +23°C° 0 mm 2 m/s 737 mmHg 69%
    05:00 +23°C° 0 mm 2 m/s 737 mmHg 69%
    06:00 +23°C° 0 mm 2 m/s 737 mmHg 69%
    07:00 +25°C° 0 mm 3 m/s 737 mmHg 63%
    08:00 +27°C° 0 mm 3 m/s 737 mmHg 57%
    09:00 +28°C° 0 mm 4 m/s 737 mmHg 51%
    10:00 +29°C° 0 mm 4 m/s 736 mmHg 47%
    11:00 +30°C° 0 mm 4 m/s 736 mmHg 44%
    12:00 +32°C° 0 mm 4 m/s 736 mmHg 41%
    13:00 +33°C° 0.1 mm 4 m/s 735 mmHg 40%
    14:00 +33°C° 0.1 mm 4 m/s 735 mmHg 39%
    15:00 +34°C° 0.1 mm 4 m/s 734 mmHg 37%
    16:00 +33°C° 0.1 mm 4 m/s 734 mmHg 40%
    17:00 +31°C° 0.1 mm 3 m/s 734 mmHg 42%
    18:00 +30°C° 0.1 mm 3 m/s 734 mmHg 44%
    19:00 +29°C° 0.1 mm 3 m/s 734 mmHg 48%
    20:00 +27°C° 0.1 mm 3 m/s 735 mmHg 53%
    21:00 +26°C° 0.1 mm 3 m/s 735 mmHg 57%
    22:00 +25°C° 0.1 mm 3 m/s 735 mmHg 61%
    23:00 +24°C° 0.1 mm 2 m/s 735 mmHg 65%

    28 Août, Mercredi

    Heure Température Précipitation Vent Pression Humidité
    00:00 +21°C° 0.1 mm 2 m/s 734 mmHg 69%
    01:00 +22°C° 0 mm 1 m/s 734 mmHg 69%
    02:00 +22°C° 0 mm 1 m/s 734 mmHg 68%
    03:00 +20°C° 0 mm 0 m/s 734 mmHg 68%
    04:00 +20°C° 0 mm 0 m/s 734 mmHg 67%
    05:00 +23°C° 0 mm 1 m/s 734 mmHg 65%
    06:00 +23°C° 0 mm 1 m/s 734 mmHg 64%
    07:00 +25°C° 0 mm 1 m/s 734 mmHg 59%
    08:00 +26°C° 0 mm 1 m/s 734 mmHg 54%
    09:00 +28°C° 0 mm 2 m/s 734 mmHg 49%
    10:00 +29°C° 0.1 mm 2 m/s 735 mmHg 46%
    11:00 +31°C° 0.1 mm 2 m/s 735 mmHg 43%
    12:00 +32°C° 0.1 mm 2 m/s 735 mmHg 40%
    13:00 +33°C° 0 mm 3 m/s 734 mmHg 39%
    14:00 +34°C° 0 mm 3 m/s 734 mmHg 38%
    15:00 +34°C° 0 mm 3 m/s 734 mmHg 37%
    16:00 +34°C° 0 mm 3 m/s 734 mmHg 38%
    17:00 +33°C° 0 mm 3 m/s 734 mmHg 40%
    18:00 +31°C° 0 mm 3 m/s 734 mmHg 41%
    19:00 +30°C° 0 mm 3 m/s 735 mmHg 45%
    20:00 +28°C° 0 mm 4 m/s 735 mmHg 49%
    21:00 +26°C° 0 mm 4 m/s 736 mmHg 53%
    22:00 +25°C° 0 mm 4 m/s 736 mmHg 55%
    23:00 +23°C° 0 mm 4 m/s 736 mmHg 58%
    Voir plus